Simultaneous Nadir Overpasses (SNOs) Predictions

Prediction of SNOs between AQUA and NOAA-19 Satellite Orbit:

Table of predicted SNOs for the next 14.0 days since TLE Epoch: 5/1/2016
Index Date (AQUA) Time (AQUA) Lat,Lon (AQUA) SZA (AQUA ) Date (NOAA-19) Time (NOAA-19) Lat,Lon (NOAA-19) SZA (NOAA-19 ) Distance(km) Time Diff (sec)
1 05/02/2016 01:09:05 80.78, 124.68 67.26 05/02/2016 01:08:49 80.78, 124.81 67.25 2.34 16
2 05/04/2016 06:42:46 -80.78,-138.73 113.40 05/04/2016 06:43:00 -80.78,-138.79 113.40 1.13 14
3 05/06/2016 11:27:01 -80.80, 150.01 113.99 05/06/2016 11:26:06 -80.81, 149.85 113.94 3.01 55
4 05/06/2016 12:16:27 80.78, -42.20 65.98 05/06/2016 12:17:00 80.78, -42.17 65.96 0.57 33
5 05/08/2016 17:00:42 80.81,-113.52 65.43 05/08/2016 17:00:06 80.80,-113.50 65.44 0.39 36
6 05/08/2016 17:50:08 -80.79, 54.30 114.62 05/08/2016 17:51:10 -80.78, 54.41 114.66 2.35 62
7 05/10/2016 22:34:22 -80.79, -16.73 115.20 05/10/2016 22:34:15 -80.79, -16.68 115.19 0.99 7
8 05/13/2016 04:08:03 80.81, 79.61 64.29 05/13/2016 04:08:16 80.80, 79.71 64.27 2.06 13
9 05/15/2016 08:52:17 80.81, 8.46 63.79 05/15/2016 08:51:22 80.82, 8.28 63.84 3.23 55




NCC Satellite Simultaneous Nadir Overpasses (SNOs) Prediction Service
